Simultaneous Nadir Overpasses (SNOs) Predictions

Prediction of SNOs between GOES-16 and NOAA-20 Satellite Orbit:

Table of predicted SNOs for the next 14.0 days since TLE Epoch: 5/15/2020
Index Date Time (GOES-16) GOES-16 Lat,Lon NOAA-20 Lat,Lon Distance(km) Time Diff (sec)
1 05/16/2020 18:39:34 0.00, -75.21 -0.79, -78.83 412.29 80
2 05/17/2020 18:23:29 0.01, -75.21 0.19, -74.29 105.03 80
3 05/19/2020 06:45:16 -0.00, -75.22 0.98, -79.56 495.08 80
4 05/20/2020 06:23:51 -0.01, -75.23 -0.06, -75.03 22.27 80
5 05/22/2020 18:27:02 0.01, -75.27 -0.13, -75.80 61.72 80
6 05/23/2020 18:10:58 0.01, -75.28 0.91, -71.28 456.14 80
7 05/25/2020 06:32:45 -0.00, -75.29 0.26, -76.55 143.24 80
8 05/26/2020 06:11:20 -0.00, -75.30 -0.72, -72.01 374.53 80
9 05/27/2020 18:33:16 -0.00, -75.33 -0.45, -77.32 226.71 80
10 05/28/2020 18:17:11 -0.01, -75.35 0.59, -72.79 291.59 80




NCC Satellite Simultaneous Nadir Overpasses (SNOs) Prediction Service
